Flag for United Arab Emirates Weather past 2 weeks in Sharjah, Sharjah, United Arab Emirates

Now
106 °F

Passing clouds.


Feels Like: 111 °F
Forecast: 93 / 102 °F
Wind: 16 mph from Northwest

Location: Sharjah International Airport

Current Time: Aug 29, 2014 at 5:03:14 PM

Latest Report: Aug 29, 2014 at 4:00 PM


Visibility: N/A

Pressure: 29.53 "Hg

Humidity: 28%

Dew point: 66 °F

Location of SharjahLocation

Historic Weather in Sharjah — Graph

°F

Sharjah temperature yesterday

Maximum temperature yesterday: 108 °F (at 12:00 PM)
Minimum temperature yesterday: 86 °F (at 3:00 AM)
Average temperature yesterday: 96 °F

Past Weeks' High & Low Weather Summary

 TemperatureHumidityPressure
High117 °F (Aug 16, 1:00 PM)84% (Aug 22, 4:00 AM)29.77 "Hg (Aug 22, 4:00 AM)
Low86 °F (Aug 15, 7:00 AM)10% (Aug 16, 1:00 PM)29.42 "Hg (Aug 15, 6:00 PM)
Average96 °F49%29.59 "Hg
* Reported Aug 14 4:00 PM — Aug 29 4:00 PM, Sharjah, Weather by CustomWeather, © 2014

Note: Actual official high and low records may vary slightly from our data, if they occured in-between our weather recording intervals... More about our weather records

Advertising

Sharjah weather history for previous 24 hours

 ConditionsComfort  
Time TempWeatherWind HumidityBarometerVisibility
4:00 PM
Aug 29
106 °FPassing clouds.16 mph28%29.53 "HgN/A
3:00 PM106 °FSunny.15 mph30%29.56 "Hg10 mi
2:00 PM108 °FPassing clouds.13 mph25%29.59 "HgN/A
1:00 PM108 °FSunny.6 mph23%29.59 "Hg10 mi
12:00 PM106 °FPassing clouds.8 mph28%29.62 "HgN/A
11:00 AM104 °FPassing clouds.8 mph31%29.65 "HgN/A
10:00 AM102 °FSunny.13 mph37%29.65 "Hg10 mi
9:00 AM97 °FSunny.9 mph44%29.65 "Hg10 mi
8:00 AM93 °FPassing clouds.3 mph53%29.65 "HgN/A
7:00 AM90 °FSunny.3 mph59%29.62 "Hg10 mi
6:00 AM88 °FSunny.No wind62%29.62 "Hg10 mi
5:00 AM90 °FClear.5 mph63%29.59 "Hg10 mi
4:00 AM90 °FClear.2 mph59%29.59 "Hg10 mi
3:00 AM90 °FClear.2 mph59%29.56 "Hg10 mi
2:00 AM93 °FClear.6 mph53%29.56 "Hg10 mi
1:00 AM93 °FClear.6 mph53%29.56 "Hg10 mi
12:00 AM95 °FPassing clouds.7 mph44%29.59 "HgN/A
11:00 PM
Aug 28
95 °FClear.1 mph47%29.59 "Hg10 mi
10:00 PM95 °FPassing clouds.3 mph47%29.59 "HgN/A
9:00 PM95 °FPassing clouds.3 mph47%29.59 "HgN/A
8:00 PM97 °FClear.3 mph42%29.59 "Hg10 mi
7:00 PM99 °FPassing clouds.3 mph37%29.56 "HgN/A
6:00 PM100 °FPassing clouds.7 mph37%29.53 "HgN/A
5:00 PM102 °FPassing clouds.9 mph35%29.53 "HgN/A
Weather by CustomWeather, © 2014

See weather overviewHow to use our weather pages